Location: Costa Mesa
(33.6411°N, 117.9187°W)
Time: 23:01:54
(UTC+00:00)

CBERS-1 - Pass Details

Date: 10 September 2024
Orbit: 766 x 774 km, 98.8° (Epoch: 09 October)

Event Time Altitude Azimuth Distance (km) Brightness Sun altitude
Rises 13:02:54 0° 4° (N) 3,239 7.4 -6.9°
Reaches altitude 10° 13:05:18 10° 358° (N) 2,309 6.6 -6.4°
Maximum altitude 13:10:04 43° 288° (WNW) 1,075 4.4 -5.4°
Drops below altitude 10° 13:14:50 10° 218° (SW) 2,299 6.1 -4.4°
Sets 13:17:13 0° 212° (SSW) 3,223 6.8 -3.9°
